Time+07,TemperatureF,Dew PointF,Humidity,Sea Level PressureIn,VisibilityMPH,Wind Direction,Wind SpeedMPH,Gust SpeedMPH,PrecipitationIn,Events,Conditions,WindDirDegrees,DateUTC
12:00 AM,75.2,68.0,78,29.86,1.9,Calm,Calm,-,N/A,,Mist,0,2013-01-08 17:00:00
12:30 AM,73.4,64.4,73,29.86,1.9,Calm,Calm,-,N/A,,Mist,0,2013-01-08 17:30:00
1:00 AM,71.6,66.2,83,29.86,1.9,Calm,Calm,-,N/A,,Mist,0,2013-01-08 18:00:00
1:30 AM,71.6,66.2,83,29.83,1.9,Calm,Calm,-,N/A,,Mist,0,2013-01-08 18:30:00
2:00 AM,71.6,64.4,78,29.83,1.9,Calm,Calm,-,N/A,,Mist,0,2013-01-08 19:00:00
2:30 AM,69.8,64.4,83,29.83,1.9,Calm,Calm,-,N/A,,Mist,0,2013-01-08 19:30:00
3:00 AM,69.8,64.4,83,29.80,1.9,Calm,Calm,-,N/A,,Mist,0,2013-01-08 20:00:00
3:30 AM,69.8,64.4,83,29.80,1.9,Calm,Calm,-,N/A,,Mist,0,2013-01-08 20:30:00
4:00 AM,69.8,64.4,83,29.80,1.9,Calm,Calm,-,N/A,,Mist,0,2013-01-08 21:00:00
4:30 AM,69.8,64.4,83,29.80,1.9,Calm,Calm,-,N/A,,Mist,0,2013-01-08 21:30:00
5:00 AM,69.8,64.4,83,29.83,1.9,Calm,Calm,-,N/A,,Mist,0,2013-01-08 22:00:00
5:30 AM,68.0,64.4,88,29.83,1.2,Calm,Calm,-,N/A,,Mist,0,2013-01-08 22:30:00
6:00 AM,69.8,64.4,83,29.83,1.2,Calm,Calm,-,N/A,,Mist,0,2013-01-08 23:00:00
6:30 AM,69.8,64.4,83,29.83,1.2,Calm,Calm,-,N/A,,Mist,0,2013-01-08 23:30:00
7:00 AM,69.8,66.2,88,29.83,1.2,Calm,Calm,-,N/A,,Mist,0,2013-01-09 00:00:00
7:30 AM,71.6,66.2,83,29.86,1.2,Calm,Calm,-,N/A,,Mist,0,2013-01-09 00:30:00
8:00 AM,77.0,68.0,74,29.86,1.2,Calm,Calm,-,N/A,,Mist,0,2013-01-09 01:00:00
8:30 AM,80.6,69.8,70,29.89,1.9,NNE,3.5,-,N/A,,Mist,20,2013-01-09 01:30:00
9:00 AM,84.2,69.8,62,29.89,1.9,NE,2.3,-,N/A,,Haze,40,2013-01-09 02:00:00
9:30 AM,86.0,69.8,58,29.89,1.9,NE,4.6,-,N/A,,Haze,40,2013-01-09 02:30:00
10:00 AM,87.8,68.0,52,29.89,2.5,NE,4.6,-,N/A,,Haze,40,2013-01-09 03:00:00
10:30 AM,89.6,64.4,43,29.89,2.5,NE,6.9,-,N/A,,Haze,50,2013-01-09 03:30:00
11:00 AM,91.4,59.0,34,29.89,2.5,NNW,4.6,-,N/A,,Haze,330,2013-01-09 04:00:00
11:30 AM,93.2,57.2,30,29.86,2.5,North,6.9,-,N/A,,Haze,10,2013-01-09 04:30:00
12:00 PM,91.4,66.2,43,29.86,2.5,SSW,6.9,-,N/A,,Haze,210,2013-01-09 05:00:00
12:30 PM,91.4,66.2,43,29.83,2.5,SSW,4.6,-,N/A,,Haze,210,2013-01-09 05:30:00
1:00 PM,91.4,66.2,43,29.83,2.5,WSW,6.9,-,N/A,,Haze,240,2013-01-09 06:00:00
1:30 PM,93.2,64.4,38,29.80,2.5,WSW,4.6,-,N/A,,Haze,250,2013-01-09 06:30:00
2:00 PM,93.2,64.4,38,29.80,2.5,West,6.9,-,N/A,,Haze,260,2013-01-09 07:00:00
2:30 PM,93.2,64.4,38,29.77,2.5,WSW,4.6,-,N/A,,Haze,250,2013-01-09 07:30:00
3:00 PM,95.0,59.0,30,29.77,2.5,North,6.9,-,N/A,,Haze,10,2013-01-09 08:00:00
3:30 PM,95.0,59.0,30,29.77,2.5,North,6.9,-,N/A,,Haze,10,2013-01-09 08:30:00
4:00 PM,95.0,60.8,32,29.77,2.5,North,6.9,-,N/A,,Haze,350,2013-01-09 09:00:00
4:30 PM,93.2,60.8,34,29.77,2.5,North,6.9,-,N/A,,Haze,350,2013-01-09 09:30:00
5:00 PM,89.6,64.4,43,29.77,1.9,North,8.1,-,N/A,,Haze,350,2013-01-09 10:00:00
6:00 PM,86.0,68.0,55,29.77,1.2,North,4.6,-,N/A,,Haze,350,2013-01-09 11:00:00
6:30 PM,84.2,69.8,62,29.77,1.2,NNW,4.6,-,N/A,,Haze,340,2013-01-09 11:30:00
7:00 PM,82.4,69.8,66,29.80,1.2,NE,2.3,-,N/A,,Haze,40,2013-01-09 12:00:00
7:30 PM,80.6,68.0,65,29.80,1.2,North,3.5,-,N/A,,Mist,350,2013-01-09 12:30:00
8:00 PM,80.6,68.0,65,29.80,1.2,NNW,3.5,-,N/A,,Haze,340,2013-01-09 13:00:00
8:30 PM,78.8,68.0,69,29.80,1.2,Calm,Calm,-,N/A,,Mist,0,2013-01-09 13:30:00
9:00 PM,78.8,68.0,69,29.83,1.2,Calm,Calm,-,N/A,,Mist,0,2013-01-09 14:00:00
9:30 PM,77.0,68.0,74,29.80,1.2,Calm,Calm,-,N/A,,Mist,0,2013-01-09 14:30:00
10:00 PM,75.2,68.0,78,29.83,1.2,Calm,Calm,-,N/A,,Mist,0,2013-01-09 15:00:00
10:30 PM,75.2,68.0,78,29.83,1.2,Calm,Calm,-,N/A,,Mist,0,2013-01-09 15:30:00
11:00 PM,73.4,68.0,83,29.83,1.2,North,3.5,-,N/A,,Mist,10,2013-01-09 16:00:00